This demonstration page uses our WeatherBlox Daily Observations layout. Learn more.

Left ArrowRight Arrow

39.29038, -76.61219

Hourly Observations for September 4, 2020

Temp ( °F °C ) Dew Point ( °F °C ) Humidity (%) Winds ( mph kmh ) Pressure ( in mb ) Visibility ( mi km ) Precip ( " mm )
12:54 am 00:54 Partly Cloudy 76 24.4 73 22.8 91 91 WSW 5 7 29.80 1009 10 16 0.00 0.00
1:54 am 01:54 Mostly Clear 75 23.9 73 22.8 94 94 W 8 13 29.81 1010 10 16 0.00 0.00
2:54 am 02:54 Mostly Clear 74 23.3 72 22.2 94 94 WSW 5 7 29.83 1010 10 16 0.00 0.00
3:54 am 03:54 Mostly Clear 73 22.8 71 21.7 94 94 Calm 29.84 1011 10 16 0.00 0.00
4:54 am 04:54 Clear 71 21.7 68 20 90 90 W 5 7 29.84 1011 10 16 0.00 0.00
5:54 am 05:54 Clear 72 22.2 70 21.1 94 94 SW 5 7 29.85 1011 10 16 0.00 0.00
6:54 am 06:54 Mostly Sunny 71 21.7 69 20.6 94 94 W 6 9 29.87 1012 10 16 0.00 0.00
7:54 am 07:54 Sunny 74 23.3 70 21.1 88 88 W 6 9 29.88 1012 10 16 0.00 0.00
8:54 am 08:54 Mostly Sunny 77 25 70 21.1 79 79 W 9 15 29.90 1012 10 16 0.00 0.00
9:54 am 09:54 Mostly Sunny 81 27.2 70 21.1 69 69 W 8 13 29.91 1013 10 16 0.00 0.00
10:54 am 10:54 Mostly Sunny 84 28.9 69 20.6 61 61 WNW 14 22 29.93 1013 10 16 0.00 0.00
11:54 am 11:54 Mostly Sunny 86 30 69 20.6 57 57 WNW 13 20 29.93 1014 10 16 0.00 0.00
12:54 pm 12:54 Mostly Sunny 88 31.1 69 20.6 54 54 NW 14 22 29.92 1013 10 16 0.00 0.00
1:54 pm 13:54 Partly Cloudy 88 31.1 69 20.6 54 54 W 6 9 29.91 1013 10 16 0.00 0.00
2:54 pm 14:54 Mostly Cloudy 84 28.9 69 20.6 61 61 WNW 8 13 29.91 1013 10 16 0.00 0.00
3:54 pm 15:54 Mostly Cloudy 87 30.6 69 20.6 55 55 W 8 13 29.91 1013 10 16 0.00 0.00
4:54 pm 16:54 Mostly Cloudy 86 30 69 20.6 57 57 WNW 10 17 29.91 1013 10 16 0.00 0.00
5:54 pm 17:54 Mostly Cloudy 85 29.4 69 20.6 59 59 W 5 7 29.91 1013 10 16 0.00 0.00
6:54 pm 18:54 Mostly Cloudy 82 27.8 68 20 63 63 WNW 6 9 29.93 1013 10 16 0.00 0.00
7:54 pm 19:54 Mostly Cloudy 81 27.2 68 20 65 65 NW 3 6 29.95 1014 10 16 0.00 0.00
8:54 pm 20:54 Partly Cloudy 77 25 66 18.9 69 69 WNW 7 11 29.99 1016 10 16 0.00 0.00
9:54 pm 21:54 Mostly Clear 74 23.3 61 16.1 64 64 NW 6 9 30.01 1016 10 16 0.00 0.00
10:54 pm 22:54 Partly Cloudy 73 22.8 59 15 62 62 NW 6 9 30.04 1017 10 16 0.00 0.00
11:54 pm 23:54 Partly Cloudy 72 22.2 57 13.9 59 59 NNW 6 9 30.06 1018 10 16 0.00 0.00

Powered by AerisWeather